Theta_e
315 314 314 313 313 313 313 313 312 312 312 314 316 318 319 321 322 323 324 325 325 326 326 326 326 326 326 326 326 325 325 325 325 325 325 325 325 325 325 325 325 324 324 324 324 324 323 323 323 323 323 322 322 322 322 322 321 321 320 320 320 320 319 319 320 320 319 319 320 320 320 320 320 319 319 318 319 318 318 318 318 318 318 318 318
315 314 313 313 312 313 313 313 312 312 311 312 313 315 317 318 320 322 323 323 324 325 326 326 326 326 326 326 326 325 325 325 325 325 324 325 325 325 325 325 324 324 324 324 324 323 323 323 323 323 322 322 322 322 322 321 321 320 320 320 320 320 319 319 319 319 319 319 319 319 319 319 319 319 319 318 319 319 318 318 318 318 318 318 318
314 313 312 311 312 312 313 313 312 311 311 311 311 312 314 316 318 320 321 322 323 324 325 325 326 326 326 326 326 326 325 325 325 325 325 325 325 325 324 324 324 324 324 324 323 323 323 323 323 322 322 322 322 322 322 321 321 320 320 320 320 319 319 319 319 319 319 319 319 319 319 319 319 319 319 319 319 319 318 318 318 318 319 319 319
313 311 311 311 311 312 313 313 312 311 311 311 311 311 312 314 316 318 320 321 322 323 324 324 325 325 326 326 326 326 325 325 325 325 325 324 324 325 324 324 324 324 324 324 323 323 323 323 323 322 322 322 322 322 321 321 321 320 320 320 320 319 319 319 319 319 319 319 319 319 319 319 319 319 319 319 319 318 318 318 318 318 318 318 319
310 310 310 310 310 311 313 313 312 311 311 311 310 310 310 311 314 316 317 318 320 322 323 324 324 325 325 326 326 326 326 325 325 325 324 324 324 324 324 324 324 324 324 324 323 323 323 322 322 322 322 322 321 321 321 321 321 320 320 320 320 320 319 319 319 319 319 319 319 319 319 318 319 319 319 319 319 318 318 318 318 318 318 318 318
309 309 309 309 309 310 312 313 312 311 310 310 310 310 310 310 311 313 315 316 317 318 320 322 323 323 324 325 325 325 325 325 325 325 325 324 324 324 324 324 324 324 324 324 323 323 323 322 322 322 322 322 321 321 321 321 320 320 320 320 320 319 319 319 319 318 318 318 318 318 318 318 318 318 318 319 318 318 318 318 318 317 317 317 317
308 308 308 308 309 310 311 311 311 310 310 310 310 310 310 309 309 311 313 315 315 316 317 319 320 321 322 324 325 325 325 325 325 325 324 324 324 324 324 324 324 323 323 323 323 323 323 322 322 322 322 322 321 321 321 320 320 320 320 320 319 319 319 319 318 318 318 318 318 318 318 318 318 318 318 318 318 318 318 317 317 318 317 317 317
307 307 308 308 308 309 310 310 310 310 310 309 309 309 309 309 309 309 310 312 313 314 315 316 318 318 319 321 322 324 324 324 324 324 324 324 324 324 324 323 323 323 323 323 323 323 322 322 322 322 322 322 321 321 321 321 320 320 320 320 319 319 319 319 318 318 318 317 318 318 317 317 317 317 317 317 316 316 317 317 316 317 317 317 317
306 307 307 308 308 309 309 309 309 309 309 309 309 309 309 309 309 309 308 309 310 311 313 314 315 316 318 319 320 321 322 323 323 323 323 323 323 323 323 323 323 322 322 322 322 322 322 322 322 321 321 321 321 321 321 321 320 320 320 320 319 319 319 318 318 318 318 317 317 317 317 317 317 316 316 315 315 316 317 317 316 316 316 316 316
306 306 306 307 308 309 308 308 308 308 308 308 308 308 308 308 309 309 309 308 308 309 310 312 313 314 316 317 318 319 320 320 321 321 322 322 323 323 323 322 322 322 322 321 321 321 321 321 321 321 321 321 321 321 321 321 321 321 320 320 319 319 318 318 318 318 317 317 317 317 317 316 317 316 315 315 316 316 317 316 315 315 315 314 315
305 305 306 307 307 307 307 307 307 307 307 307 307 307 307 307 308 309 309 309 309 309 309 309 310 311 313 314 315 316 316 317 318 318 319 320 321 321 322 322 322 322 321 321 320 320 320 320 320 321 321 321 321 321 321 321 321 320 320 320 320 319 319 318 318 317 317 316 316 317 317 317 317 317 316 316 316 316 316 316 315 314 313 313 313
304 305 305 305 306 306 306 305 305 306 306 305 305 306 306 307 307 308 309 310 310 310 309 309 309 310 310 310 311 312 312 313 314 315 317 318 319 319 319 320 320 321 320 320 320 320 320 320 320 320 320 320 320 320 320 320 320 320 320 320 320 320 319 319 318 318 317 316 316 316 316 316 317 316 316 316 316 316 316 316 315 314 313 311 311
304 303 304 304 304 304 304 304 304 304 304 304 304 305 306 306 306 307 308 309 309 309 309 309 309 309 309 309 309 310 310 310 311 312 313 315 316 317 317 317 318 318 319 319 319 319 319 319 319 319 319 320 320 320 320 319 319 319 319 319 319 319 319 319 318 318 317 316 316 316 316 316 316 316 317 317 317 316 316 315 314 314 312 311 311
303 302 302 302 302 302 302 302 302 302 302 303 303 304 305 306 306 306 306 307 307 307 308 308 309 309 310 310 310 310 310 310 310 311 312 313 314 315 315 316 316 316 317 317 317 318 318 318 318 318 318 319 319 319 318 318 318 318 318 318 318 318 318 318 318 317 316 315 314 315 315 316 316 316 316 316 316 315 315 314 314 313 312 312 313
301 301 301 301 300 300 300 300 300 301 301 301 302 304 305 305 306 305 305 305 305 305 307 308 309 309 310 311 311 311 310 310 311 312 312 313 314 314 315 314 314 314 315 315 315 315 316 316 317 317 317 317 317 317 317 317 316 316 316 316 316 316 316 316 316 316 315 314 312 312 312 313 313 313 313 314 314 314 314 314 313 313 312 312 312
299 299 299 299 299 299 299 299 300 300 300 300 301 303 304 304 305 304 304 303 303 304 306 307 307 308 309 310 311 310 308 308 309 310 311 312 312 313 313 313 312 312 312 312 312 312 313 313 314 314 315 314 314 314 314 314 314 314 314 313 313 313 313 313 313 312 312 311 310 310 310 310 310 310 311 311 311 312 312 311 311 312 310 309 309
297 297 297 297 298 298 298 298 298 298 298 299 300 301 302 303 303 302 301 301 301 303 305 306 306 307 308 308 309 308 307 307 307 308 308 309 310 310 310 311 311 310 310 309 309 309 309 310 310 311 311 310 309 309 310 310 310 311 310 310 310 310 310 311 310 309 309 308 308 308 308 308 309 309 309 309 310 310 310 308 308 309 308 308 308
295 295 295 296 296 296 296 296 297 297 297 298 299 300 301 301 301 300 299 299 300 302 303 304 305 305 306 306 306 306 305 305 305 306 306 307 307 308 308 308 308 308 307 307 307 306 306 306 307 307 307 306 306 306 306 307 307 307 306 306 306 306 307 307 307 307 307 307 307 306 306 306 306 307 307 307 308 308 308 308 308 307 306 306 306
294 294 294 295 295 295 295 295 295 296 296 296 297 298 299 300 300 299 297 297 298 300 301 302 302 302 303 303 303 302 302 302 303 303 304 304 305 306 306 307 306 306 306 306 305 305 304 304 304 304 304 304 305 305 306 305 305 304 304 303 303 303 303 304 304 305 305 305 305 304 304 303 303 303 304 304 305 305 305 305 306 305 304 304 304
293 293 293 294 294 294 294 294 295 295 295 295 296 297 298 298 298 298 297 296 296 297 298 299 298 297 297 297 297 297 297 297 298 299 300 300 301 302 303 303 303 303 303 303 302 301 301 301 300 301 301 302 302 303 303 303 302 302 301 301 300 300 300 300 300 300 300 300 300 300 299 299 299 300 300 301 301 302 302 302 303 303 303 303 302
292 292 292 293 293 293 293 294 294 294 294 295 295 295 296 297 297 297 295 294 294 294 295 294 294 293 293 293 293 293 293 293 294 295 296 297 298 298 299 299 299 299 298 298 298 298 298 297 297 298 298 298 299 299 299 299 299 298 298 298 297 297 297 296 296 296 296 296 296 296 296 296 296 297 297 298 298 299 299 300 300 301 301 301 301
292 292 292 292 292 292 292 293 293 293 294 294 294 294 294 294 295 295 294 293 293 293 293 293 292 292 292 292 291 292 292 292 292 293 294 294 295 296 296 296 297 296 296 296 296 296 296 296 296 297 296 296 296 296 296 297 297 297 296 296 296 295 295 295 294 294 294 294 294 294 294 295 295 295 296 296 296 296 297 298 299 300 300 300 301
291 292 292 292 292 292 292 292 292 292 292 293 293 293 293 293 293 293 293 293 293 293 293 293 293 293 292 292 291 290 290 291 291 292 292 293 294 294 294 294 295 295 295 295 295 295 295 295 295 296 296 295 295 295 295 295 295 294 294 294 293 293 293 292 292 292 293 293 293 294 294 294 294 294 294 294 294 294 295 297 298 298 299 299 299
292 291 291 292 292 291 292 292 292 292 292 292 292 292 292 293 293 293 293 293 293 293 293 293 293 293 293 292 292 291 290 290 290 290 291 291 292 293 293 294 294 294 294 294 294 295 295 295 295 296 296 295 295 295 295 295 294 294 293 293 292 292 291 291 291 292 292 293 293 293 293 293 293 293 293 293 293 293 294 295 296 297 297 298 298
291 290 290 290 291 291 291 291 291 291 292 292 292 292 292 292 292 292 293 293 293 293 293 293 293 293 293 293 292 291 290 290 289 290 290 290 290 291 292 292 293 293 294 294 294 294 294 295 295 295 295 295 294 294 294 294 293 293 293 293 292 292 292 292 292 292 293 293 293 293 293 293 292 292 293 293 293 293 293 294 294 295 295 295 296
290 289 289 289 289 290 290 290 290 290 291 292 292 292 292 291 291 291 291 292 292 292 292 292 292 292 292 292 291 290 289 288 288 288 288 289 289 289 290 291 291 292 293 293 293 293 293 294 293 293 293 293 293 293 292 292 292 292 292 292 292 292 292 292 292 292 292 293 292 292 292 292 292 292 292 292 292 292 293 293 293 293 294 294 294
288 288 288 288 288 289 289 289 289 289 290 291 291 291 291 291 290 290 290 290 290 290 290 290 290 290 290 290 290 290 289 287 286 286 286 287 287 288 288 289 290 290 291 292 293 293 293 293 292 292 292 292 292 292 291 291 291 291 291 291 291 291 291 291 291 291 292 292 291 291 291 291 291 291 291 291 292 292 292 292 292 292 293 293 293
288 288 288 288 288 288 288 288 288 288 288 289 289 289 289 289 288 288 288 288 289 289 289 288 288 288 288 288 289 289 288 286 285 285 285 285 286 287 288 289 289 290 291 291 292 292 292 292 291 291 291 291 291 291 290 290 290 290 289 290 290 290 290 290 290 290 290 290 290 290 290 290 290 291 291 291 291 291 291 291 291 291 292 292 293
288 288 288 288 288 288 288 288 288 287 287 287 287 287 287 287 287 286 286 286 287 287 287 286 287 287 287 286 286 286 286 285 284 284 284 284 285 286 288 289 289 290 291 291 291 291 291 290 290 290 290 290 290 290 290 289 289 289 289 289 289 289 289 289 289 289 289 289 289 290 290 290 290 290 290 290 291 291 291 290 291 291 291 292 292
287 287 287 286 286 286 286 286 286 287 287 287 287 286 286 286 286 285 285 285 285 285 285 285 285 286 286 285 284 284 283 283 283 283 283 283 284 286 287 288 288 290 291 290 289 289 290 290 289 289 289 289 289 289 288 288 288 288 288 288 288 288 288 288 288 288 288 288 289 289 289 289 289 289 289 290 290 290 290 290 290 291 291 291 292
286 286 285 285 285 285 285 285 285 285 286 286 286 286 286 285 285 285 285 284 284 284 284 284 284 284 284 283 283 282 282 282 282 282 282 283 284 286 286 286 287 288 289 288 288 288 288 288 288 287 288 288 288 287 287 287 287 287 287 287 287 287 287 287 287 287 287 288 288 288 288 288 288 288 289 289 289 289 290 290 290 290 291 291 291
286 284 283 283 283 283 284 284 284 284 284 284 285 285 285 285 285 284 284 284 283 283 283 283 283 282 282 282 282 282 282 282 282 282 282 282 284 285 285 285 285 286 287 287 287 287 287 286 286 286 286 286 286 286 285 285 285 285 286 286 286 286 286 285 285 286 286 286 286 286 287 287 287 288 288 288 288 288 289 289 289 290 290 290 290
285 283 282 282 282 282 282 282 282 283 283 283 283 283 284 284 284 284 283 283 282 282 281 281 281 280 280 280 280 281 281 281 281 281 281 281 283 284 283 283 284 284 285 285 285 285 285 285 284 284 284 284 284 284 284 284 284 284 284 284 285 285 285 285 284 284 284 285 285 285 286 286 286 286 287 287 287 288 288 288 288 289 289 289 290
285 283 282 281 281 280 280 280 281 281 281 281 282 282 282 282 283 283 283 282 282 281 280 279 279 279 279 279 279 280 281 281 280 280 280 281 282 282 282 282 282 282 283 283 283 283 283 283 283 283 282 282 282 282 282 282 282 282 283 283 283 283 283 283 283 283 284 284 285 285 285 285 285 286 286 286 287 287 287 287 288 288 288 289 289
283 282 281 280 279 279 278 278 279 280 280 280 280 280 280 281 281 281 281 282 282 281 279 279 278 278 278 278 278 279 279 279 279 279 279 280 280 281 281 281 280 280 280 280 280 281 281 281 281 280 280 279 279 279 279 279 279 280 280 280 281 281 281 282 282 283 283 284 284 284 284 284 285 285 286 286 286 286 287 287 287 288 288 288 288
280 280 279 278 278 278 277 277 277 278 278 278 278 278 279 280 280 280 280 280 280 279 279 278 278 277 276 276 277 278 278 278 278 278 278 278 279 279 279 279 278 278 278 277 278 278 278 277 277 277 277 277 277 277 277 277 278 278 279 279 279 280 280 281 281 281 281 282 282 282 283 283 284 284 285 285 286 286 286 286 286 286 286 286 286
278 277 277 277 276 276 276 276 276 276 276 276 276 277 278 278 278 278 278 278 279 279 278 278 277 276 276 275 276 276 277 277 277 276 276 276 276 276 276 275 275 275 275 274 274 275 274 274 274 274 274 275 275 275 275 276 276 277 277 277 277 278 278 278 279 279 279 280 280 280 280 281 281 281 282 282 283 283 284 284 284 284 284 284 284
276 276 276 276 275 275 275 274 274 275 275 275 276 276 277 277 277 277 277 278 278 278 277 277 276 275 275 274 274 275 276 276 276 275 274 273 273 273 272 272 272 272 272 272 272 272 272 272 272 272 273 273 273 273 273 273 273 274 274 274 275 276 276 276 277 277 277 277 277 277 277 277 278 278 278 279 280 281 281 282 282 282 282 282 283
274 274 274 275 274 274 274 273 273 274 274 275 275 276 276 276 276 277 277 277 277 277 276 275 274 274 273 273 273 274 275 275 274 273 272 271 270 269 269 269 269 269 270 269 269 270 270 270 270 271 271 271 270 270 270 271 271 271 272 273 273 273 274 274 274 274 274 273 273 274 274 275 275 276 276 277 278 278 279 279 279 280 280 281 281
273 272 272 273 273 273 273 273 273 273 274 274 275 275 275 275 275 276 276 276 276 276 275 274 273 272 271 272 272 273 274 273 272 271 270 270 268 267 267 267 267 268 268 268 268 268 268 269 269 269 269 268 268 268 268 269 269 269 270 270 270 271 271 271 271 271 271 271 271 272 272 272 273 273 273 274 275 275 276 276 277 278 278 279 279
271 271 271 271 271 272 272 272 272 272 273 273 274 274 274 274 274 275 275 275 275 274 273 272 271 270 270 270 271 271 271 271 270 270 269 268 267 266 266 266 266 266 266 266 266 266 267 267 267 267 267 267 267 267 267 267 267 268 268 268 269 269 270 270 270 269 269 270 270 270 270 270 271 271 271 272 273 273 274 274 275 276 276 277 278
270 270 270 270 270 271 271 271 271 272 272 273 273 273 273 273 274 274 274 274 273 272 272 271 270 269 269 269 269 269 269 269 269 268 268 267 266 265 265 265 265 264 264 265 265 265 265 266 266 266 266 266 266 266 266 267 267 267 267 268 268 268 269 269 269 269 269 269 269 269 270 270 270 270 271 271 271 272 272 273 273 274 275 275 276
269 269 269 269 269 270 270 271 271 271 272 272 272 272 272 272 273 273 272 272 271 271 270 270 269 268 268 268 268 268 268 268 267 267 266 265 265 264 264 264 264 264 264 264 264 264 264 264 265 265 265 265 265 265 265 266 266 266 267 267 268 268 268 268 269 269 269 269 269 269 269 269 269 270 270 270 271 271 272 272 272 273 274 274 274
268 268 268 268 269 269 270 270 270 271 271 271 271 271 271 271 271 271 271 270 270 269 269 268 268 267 267 267 267 267 266 266 266 265 265 264 264 264 264 264 264 264 265 265 264 265 264 264 264 265 265 265 265 265 265 266 266 266 267 267 267 268 268 268 268 268 268 268 268 268 268 269 269 269 270 270 270 271 271 272 272 272 273 273 274
267 267 267 268 268 269 269 269 270 270 270 270 270 270 270 270 270 270 269 269 268 268 267 267 267 266 266 266 266 266 265 265 265 264 264 264 264 264 264 265 265 265 265 265 265 265 265 264 264 264 264 264 264 265 265 265 266 266 267 267 267 267 267 267 267 267 267 267 267 267 267 268 268 269 269 269 270 270 270 271 271 272 272 273 273
266 267 267 268 268 268 268 269 269 269 269 269 269 269 269 269 269 268 268 267 267 266 266 266 265 265 265 265 265 265 264 264 264 264 263 264 264 264 265 265 265 265 265 265 265 265 265 265 264 264 264 264 264 265 265 265 266 266 266 266 266 267 267 267 266 266 266 266 266 266 267 267 267 268 268 269 269 269 270 270 271 272 272 273 273
266 267 267 267 267 268 268 268 268 268 268 268 268 268 267 267 267 267 266 266 265 265 264 264 264 264 264 264 264 264 264 263 263 263 263 264 264 264 265 265 265 265 265 265 265 265 266 266 265 265 265 264 264 264 265 265 265 266 266 266 266 267 266 266 265 266 266 266 266 266 266 266 266 267 267 268 268 269 269 270 271 272 272 273 273
266 266 266 266 266 266 267 267 267 267 267 267 266 266 266 266 265 265 265 264 264 264 263 263 263 263 263 263 263 263 263 263 263 263 263 263 264 264 264 265 265 265 265 265 265 266 266 266 266 266 265 265 264 264 264 265 265 266 266 266 266 266 266 265 265 265 265 265 265 265 265 265 266 266 266 267 268 268 269 270 271 272 272 273 273
265 265 265 265 265 265 265 265 265 265 265 265 265 265 264 264 264 264 263 263 263 263 263 262 262 262 262 262 263 263 263 263 263 263 263 263 264 264 264 265 265 265 266 266 266 266 266 266 266 267 266 266 265 264 264 264 265 265 265 266 266 266 265 264 264 264 264 264 265 265 265 265 265 266 266 267 268 268 269 270 271 271 272 273 273
264 264 264 264 264 264 264 264 264 264 264 264 264 263 263 263 263 263 262 262 262 262 262 262 262 262 262 263 263 263 263 263 263 263 264 264 264 265 265 265 266 266 266 266 266 266 266 266 267 267 267 266 266 265 264 264 264 264 265 265 266 265 265 264 264 264 264 264 264 265 265 265 265 265 266 266 267 268 269 270 270 271 271 272 272
264 264 263 263 263 263 263 263 263 262 262 263 263 262 262 262 262 262 262 262 261 261 261 262 262 262 262 263 263 263 263 263 263 263 263 264 264 265 265 265 266 266 266 266 265 266 266 266 266 266 266 266 266 265 265 264 264 264 264 265 265 265 265 264 264 264 264 264 264 265 265 265 265 265 265 266 267 268 268 269 270 270 270 271 272
Wind_Speed
10 11 13 16 18 19 21 21 21 22 23 23 23 26 27 27 28 28 27 28 27 28 30 29 29 31 32 34 36 36 35 35 35 36 35 33 31 31 30 30 32 31 31 31 31 30 28 28 30 31 30 28 28 29 27 28 31 30 31 30 26 24 26 22 15 12 17 26 30 30 28 27 28 28 26 27 29 30 31 32 32 31 32 32 31
11 12 16 19 21 21 22 22 22 22 23 23 25 27 28 28 26 25 26 28 26 27 29 29 29 29 29 30 33 35 36 35 35 36 35 33 31 30 30 30 31 31 31 31 30 30 29 28 29 30 30 30 29 29 28 27 27 27 28 29 27 25 26 25 20 14 14 21 27 28 28 29 31 30 27 27 30 33 34 34 33 33 33 33 32
12 15 19 20 21 22 23 23 22 23 23 24 26 27 28 29 26 24 25 26 26 27 28 28 29 29 29 29 30 32 34 34 34 34 35 33 31 30 30 30 30 30 31 31 29 28 28 29 28 28 28 28 28 28 27 26 25 25 27 29 29 29 29 29 26 19 15 19 24 26 27 29 32 31 30 30 32 33 33 33 34 34 33 32 32
15 18 19 20 20 22 23 23 23 23 24 25 26 27 28 28 27 24 24 24 24 25 25 26 27 28 28 30 30 30 32 33 33 34 35 35 33 32 31 30 30 30 31 31 29 27 27 28 28 27 25 25 26 26 25 27 27 28 29 30 31 32 31 31 31 28 22 20 22 25 26 28 30 32 31 30 31 32 33 33 34 35 34 33 33
18 19 19 20 21 22 22 22 24 25 25 26 27 27 27 27 27 27 26 26 25 24 23 23 25 26 26 27 28 29 30 32 34 34 35 36 35 34 32 31 30 31 31 31 30 27 26 27 27 26 26 27 29 28 28 30 31 31 32 31 31 32 32 32 33 32 28 24 22 24 25 26 28 30 30 28 28 29 31 33 34 34 31 29 30
18 19 20 21 22 23 22 22 24 25 26 27 27 27 27 27 28 28 28 28 28 26 25 24 25 27 27 26 27 28 29 31 33 33 34 35 34 32 31 30 30 31 31 31 29 27 26 26 25 26 28 30 31 31 31 32 32 33 33 33 32 31 31 31 32 31 31 29 26 25 24 25 26 27 28 29 29 29 27 27 30 31 29 26 27
18 19 20 21 22 23 23 23 23 25 26 27 27 27 27 27 27 28 28 28 29 29 28 27 28 30 29 27 27 28 28 30 31 32 32 32 30 28 28 29 30 30 31 30 28 27 27 26 26 28 30 31 32 32 32 32 32 33 34 34 32 32 31 31 30 30 29 28 26 24 24 24 25 26 26 27 29 30 27 23 25 27 27 29 30
19 19 20 21 22 23 23 23 23 24 26 27 27 27 27 27 26 27 27 28 29 29 29 28 28 29 30 30 29 26 25 27 27 28 28 27 27 28 28 29 30 28 28 28 27 29 30 31 31 32 32 33 33 33 33 32 32 33 34 34 32 31 31 30 28 27 26 24 23 23 23 22 23 23 23 22 21 24 27 26 27 28 26 28 30
18 19 20 21 22 23 23 23 23 24 25 26 27 27 26 26 25 25 25 26 27 28 28 28 28 28 28 28 28 25 23 23 23 23 24 24 26 28 29 30 30 28 27 27 28 31 33 33 34 34 34 35 36 36 36 35 34 34 33 32 32 31 31 29 26 24 22 20 20 20 18 18 19 18 18 20 21 24 28 28 27 29 27 27 27
18 18 19 20 21 22 23 23 23 23 24 24 25 25 25 25 24 24 24 24 25 25 26 26 26 26 24 22 21 20 20 21 22 24 25 25 25 26 27 28 28 27 28 28 29 31 32 33 34 35 35 37 38 38 39 39 39 39 37 34 32 31 29 27 25 23 20 17 18 18 14 14 18 18 18 22 25 27 27 24 24 26 24 22 23
18 19 19 20 20 21 21 21 21 21 21 22 23 23 23 23 23 23 22 22 22 22 23 24 24 23 23 21 20 20 21 21 23 25 26 27 27 28 28 25 24 26 29 29 29 30 30 32 33 34 35 36 37 38 39 41 42 42 42 40 38 34 31 27 24 23 21 18 19 19 14 14 18 20 21 23 24 25 25 24 24 22 18 13 12
18 19 19 18 19 19 19 19 19 19 19 20 21 21 21 21 21 21 21 20 19 19 20 21 21 21 21 21 21 22 23 23 23 24 24 25 26 28 29 27 25 26 27 28 29 29 29 30 31 32 33 34 35 36 37 39 40 41 43 43 43 42 39 35 30 25 22 20 20 20 19 18 19 20 21 22 23 25 26 25 23 22 19 14 10
18 18 17 17 17 17 17 18 18 18 18 19 19 19 20 20 19 19 19 18 17 17 17 16 17 17 17 17 18 18 19 20 21 21 22 22 22 24 27 28 27 26 25 25 26 27 27 28 29 30 31 32 33 34 35 36 36 37 39 40 41 42 42 42 39 35 30 25 22 21 21 20 21 22 23 24 25 24 23 22 23 23 22 19 19
16 16 16 15 14 14 15 16 17 18 18 18 18 18 18 18 18 17 17 17 16 15 14 13 13 14 13 14 14 13 14 16 16 17 19 20 21 22 24 25 26 26 26 25 25 26 26 27 28 29 29 30 31 32 32 33 32 32 33 33 35 36 37 38 39 38 37 34 31 29 27 23 23 23 22 21 23 22 21 20 20 21 22 23 25
13 13 13 13 12 13 14 15 16 17 17 17 17 17 17 17 17 16 16 15 14 12 12 12 12 12 13 13 12 13 14 14 13 14 15 16 18 20 21 22 23 24 24 24 24 24 24 25 25 26 26 26 26 27 27 28 28 27 27 27 28 29 29 29 30 30 31 31 32 32 30 27 26 25 22 20 20 21 21 20 19 19 20 22 23
9 9 10 10 11 12 12 13 14 14 14 15 15 15 15 15 14 14 14 13 11 10 10 10 10 11 11 11 11 12 12 11 11 11 11 12 13 14 16 18 19 20 20 20 20 20 20 20 20 20 20 19 19 20 20 21 22 22 22 22 21 21 20 19 19 19 20 20 21 22 22 22 23 23 23 22 22 21 21 21 21 20 19 17 16
6 6 7 9 9 10 11 11 12 12 12 12 12 12 12 12 12 11 11 10 9 9 9 8 8 8 7 7 8 9 10 9 9 9 9 9 9 9 10 11 12 13 14 14 13 13 13 13 12 12 11 11 11 12 12 13 14 14 14 14 13 13 13 13 13 12 12 13 14 14 15 15 16 17 18 18 18 18 17 17 17 16 13 9 9
4 5 6 7 7 8 9 9 10 10 10 10 10 9 10 10 10 9 8 7 8 8 7 7 7 6 6 6 6 7 8 8 8 9 9 9 9 9 8 8 7 7 7 7 8 8 7 8 7 7 7 7 7 7 8 7 8 8 8 8 8 8 9 10 12 12 13 13 14 15 15 15 15 16 16 16 15 15 16 17 17 15 11 9 7
3 4 4 5 5 6 7 7 8 8 8 8 8 8 8 8 8 7 6 5 7 7 7 7 6 6 5 5 5 6 6 7 8 9 10 10 11 11 10 9 8 8 7 7 7 7 7 7 7 7 7 8 8 9 9 9 9 9 8 8 8 8 9 11 14 16 17 18 18 19 20 20 20 20 19 19 18 17 18 19 18 15 13 12 9
2 2 3 3 4 4 4 5 5 5 6 7 7 7 7 6 6 5 4 3 3 3 3 2 1 2 2 2 2 3 3 4 5 6 6 7 8 9 10 10 10 10 9 8 8 7 7 7 7 7 8 9 11 11 12 12 12 11 10 9 8 9 11 13 15 16 17 17 18 19 20 20 20 21 21 20 20 20 20 20 19 17 17 16 12
1 1 2 2 3 3 4 4 4 4 4 5 5 6 5 4 4 3 2 3 4 5 6 7 8 9 10 10 9 9 9 8 8 7 6 5 4 3 4 6 6 7 6 6 5 4 4 4 4 5 5 7 7 8 8 9 8 8 8 7 7 9 11 13 13 14 14 14 14 14 14 14 14 15 15 15 15 16 17 17 18 18 18 18 16
3 4 4 4 5 5 6 6 6 6 6 5 6 7 7 6 6 6 7 8 10 11 11 10 10 10 11 12 13 13 13 11 11 11 10 9 8 6 4 2 1 1 1 2 1 1 1 1 1 1 1 1 2 2 2 3 2 3 3 4 6 9 10 10 10 10 9 8 8 7 7 7 8 9 9 10 11 12 12 12 14 15 17 18 18
5 6 6 6 7 8 8 8 8 9 9 9 10 10 10 9 9 10 11 11 12 11 10 9 8 8 9 11 12 13 14 13 13 13 12 12 11 10 8 7 5 4 2 1 2 2 3 3 2 1 1 1 1 1 2 1 1 1 1 2 4 6 6 5 5 5 4 4 4 4 4 4 5 6 7 9 11 12 13 12 13 14 15 16 17
8 8 9 9 10 10 10 10 10 11 11 11 13 13 12 12 12 12 12 11 9 8 8 7 7 7 7 8 9 11 12 13 13 12 12 12 11 11 10 9 8 6 5 4 3 3 4 5 5 5 5 4 4 5 5 4 4 4 3 2 2 1 1 1 2 2 2 3 3 3 4 5 6 7 9 12 13 13 13 13 14 15 16 17 18
10 10 11 11 12 12 12 12 12 12 13 14 15 15 14 14 13 11 10 9 8 7 6 6 6 6 6 6 8 10 11 12 13 12 11 11 10 10 9 8 7 7 6 5 4 4 4 6 7 9 9 10 10 10 9 9 8 7 5 5 4 3 3 2 2 3 3 4 4 5 6 7 8 10 12 12 12 12 12 12 13 13 14 16 17
12 12 12 12 12 12 13 14 14 14 15 16 16 16 16 15 13 11 10 9 8 7 7 7 6 6 6 6 7 9 11 13 15 16 14 13 12 11 9 8 7 6 5 4 3 3 3 5 7 9 10 10 11 11 10 9 8 7 6 5 5 3 3 3 3 3 4 5 6 6 7 8 10 11 11 11 11 11 12 13 14 14 13 14 15
13 14 13 13 13 13 13 13 14 14 15 16 16 16 15 15 14 12 10 8 8 7 7 7 7 7 7 6 7 8 9 12 15 17 17 17 16 14 11 10 9 8 7 5 4 2 1 3 5 6 7 8 8 8 8 7 7 6 6 6 6 5 4 4 3 3 4 5 6 6 7 8 10 10 10 10 10 11 12 13 15 15 16 16 15
15 14 14 13 13 13 12 12 13 13 14 14 14 13 12 12 13 12 9 7 6 6 6 6 6 6 6 7 7 6 7 9 12 14 16 16 16 15 13 12 11 10 8 6 4 1 1 2 4 5 5 5 5 5 5 5 6 7 8 8 7 7 8 7 6 5 6 6 6 7 8 8 9 10 10 10 10 12 13 14 14 15 15 15 13
14 13 12 11 11 10 10 10 11 11 11 11 12 12 10 9 11 12 11 9 7 6 6 6 5 4 5 6 6 6 6 8 10 12 13 12 13 12 12 11 11 9 7 4 2 2 2 3 4 4 3 3 4 4 5 5 6 8 10 10 9 9 10 9 9 9 9 9 9 9 9 9 10 10 11 11 11 12 13 14 13 13 13 12 11
12 10 9 8 8 7 7 7 8 8 8 8 10 11 10 8 8 9 9 8 7 6 6 6 4 3 3 4 4 4 5 7 10 11 11 11 9 8 8 9 8 6 4 2 1 3 4 4 5 6 6 6 6 7 8 8 8 8 10 10 9 10 10 10 11 12 12 11 11 11 11 11 11 11 11 11 11 12 13 12 12 12 11 10 11
9 7 6 5 6 6 5 5 6 6 7 8 8 8 8 7 6 6 5 4 4 4 4 4 3 3 2 1 2 3 4 7 9 11 11 9 7 6 7 7 6 4 2 1 2 5 6 6 6 8 8 8 9 10 10 10 11 11 11 10 10 11 11 12 13 13 12 11 12 12 12 12 12 11 11 11 11 12 12 11 11 11 10 10 11
9 7 5 4 5 5 3 3 4 4 5 6 7 7 7 7 6 4 2 1 1 1 2 2 2 2 2 1 2 3 5 7 8 9 10 8 5 4 5 5 4 2 1 2 5 8 8 7 7 8 9 9 10 10 11 11 11 11 11 11 11 11 11 12 12 12 11 11 12 11 11 12 12 12 12 12 12 11 11 11 11 11 11 11 11
10 9 7 5 4 3 2 2 2 2 3 3 4 5 5 6 6 5 3 1 1 1 1 1 1 1 2 2 3 3 4 6 6 7 8 6 3 2 3 4 5 4 4 6 8 8 8 8 8 8 9 9 9 10 10 10 11 11 11 10 10 10 11 11 12 11 11 11 11 10 11 12 12 12 12 12 12 11 11 11 11 11 11 11 11
10 9 8 6 4 3 1 1 2 2 3 3 4 4 5 4 5 6 5 4 2 1 1 2 2 2 3 3 4 4 5 5 6 7 6 5 2 0 2 4 7 8 10 11 10 8 8 8 8 9 9 10 10 11 11 11 12 12 11 11 11 11 11 12 11 11 11 10 9 10 11 12 12 12 12 12 12 12 11 11 11 11 11 12 12
10 9 8 7 5 4 3 3 2 3 3 3 3 4 5 5 5 5 5 5 4 2 1 1 2 4 5 4 4 5 6 6 7 7 7 5 2 2 3 6 8 10 12 12 10 9 9 9 9 10 11 11 11 12 12 12 12 12 11 11 11 11 11 11 11 11 11 10 10 10 11 12 12 12 12 13 13 12 11 11 12 12 12 13 13
10 10 9 8 6 5 5 5 4 3 4 4 4 3 3 3 4 5 5 4 4 3 2 1 1 3 5 4 3 4 6 7 7 8 8 6 4 5 7 8 8 9 10 10 10 9 10 10 11 11 11 11 11 11 11 10 10 10 10 10 10 11 11 11 12 13 13 12 11 12 12 13 13 13 13 13 13 12 12 13 13 13 14 15 15
11 10 9 9 7 5 5 6 6 5 5 5 4 3 2 1 2 3 4 3 4 4 3 2 1 3 6 6 5 5 6 5 6 8 8 6 7 9 10 9 8 8 8 9 9 9 10 10 10 10 10 10 10 10 10 10 10 10 11 11 11 12 12 12 13 13 13 12 12 12 13 13 14 15 15 15 14 14 13 14 14 14 15 16 16
10 10 10 9 8 6 5 6 6 6 5 5 3 2 2 3 3 3 3 3 4 5 4 3 3 3 6 7 7 7 6 4 5 8 8 8 10 11 10 9 8 8 7 8 8 8 8 8 9 9 9 9 9 10 10 10 11 11 12 11 11 11 11 12 12 12 12 12 12 13 13 13 14 15 15 14 14 14 14 14 15 15 15 15 15
9 8 9 9 8 7 7 7 7 5 4 3 3 2 3 3 3 3 3 4 4 5 5 5 4 4 6 7 8 7 5 5 6 8 9 9 10 10 9 8 7 7 6 7 7 7 7 7 8 8 8 8 9 10 10 10 10 10 10 10 10 10 10 11 11 11 11 12 12 12 12 12 12 13 13 13 13 14 14 15 15 15 16 16 16
9 7 7 8 8 8 8 8 6 5 4 4 3 3 3 3 3 3 3 4 5 5 6 6 5 5 6 8 7 5 4 4 5 6 6 7 8 9 8 7 7 6 6 6 6 6 6 6 7 7 7 7 7 7 7 8 8 8 8 9 8 8 9 9 9 10 10 11 11 11 11 12 12 13 13 13 13 14 15 15 15 15 15 16 16
8 6 6 8 8 8 7 6 6 5 5 4 4 4 3 3 3 3 4 4 5 5 6 7 6 6 6 7 6 5 5 5 4 4 5 6 7 8 8 7 7 7 6 6 6 6 6 6 6 6 6 6 6 6 6 6 7 7 7 8 8 8 8 8 9 10 11 11 11 12 12 13 13 13 13 14 14 14 14 14 15 15 15 16 16
8 8 8 8 7 7 6 6 6 7 7 5 4 4 4 4 3 3 4 5 5 6 6 6 5 5 6 6 6 7 7 6 4 5 6 7 7 7 7 7 7 7 7 7 7 7 6 6 6 6 6 6 7 6 6 6 7 7 7 8 8 9 9 9 10 12 12 12 13 13 14 14 14 13 13 14 14 14 14 14 15 15 15 15 16
8 8 7 6 6 6 6 5 5 6 6 5 5 5 5 4 4 4 5 5 5 5 5 5 4 4 5 7 8 8 7 6 5 6 6 6 7 7 7 7 7 7 7 7 7 7 7 6 6 6 6 6 7 7 6 7 7 7 8 8 9 10 11 12 13 14 15 15 16 16 16 16 15 14 14 14 14 15 15 15 15 15 14 15 15
7 6 6 6 5 5 5 5 5 5 6 7 8 7 6 5 5 6 6 6 6 5 4 3 3 3 4 6 7 7 6 6 6 6 6 6 7 7 7 7 7 7 7 8 8 7 7 7 6 6 6 6 7 7 7 7 7 8 8 10 10 11 12 13 14 15 16 17 17 17 17 16 15 15 15 15 15 16 16 16 15 15 15 16 15
6 5 5 5 5 5 4 4 5 6 7 8 8 7 6 5 6 6 7 6 6 6 4 3 2 2 3 4 5 6 6 6 6 5 5 6 6 7 6 6 6 6 6 6 6 6 6 6 6 6 6 6 7 7 7 7 7 8 9 10 10 10 10 11 12 13 14 15 15 16 16 16 15 15 15 15 15 15 16 16 16 16 16 16 16
6 5 5 5 5 5 5 4 4 5 6 6 5 5 5 5 6 7 7 6 6 6 5 4 3 3 3 3 4 4 5 5 5 5 6 6 6 6 5 4 4 4 4 4 5 5 5 5 5 5 6 6 6 6 6 6 6 8 9 10 9 8 9 11 12 13 14 14 15 15 16 16 16 16 16 16 15 15 15 16 16 16 16 17 17
7 5 4 4 4 4 4 4 4 4 4 4 4 5 5 6 6 7 8 8 7 6 5 4 3 2 2 2 2 3 4 4 4 4 5 6 5 5 4 4 3 3 3 3 4 4 5 6 6 5 5 5 5 6 5 5 6 7 9 10 9 9 11 13 14 14 14 15 16 16 17 17 17 17 16 16 16 16 16 16 16 16 16 17 17
6 3 3 6 7 7 5 4 5 5 4 4 4 4 4 5 5 6 8 8 7 6 5 4 3 2 2 2 2 3 4 4 4 4 4 5 5 5 4 4 4 3 3 3 4 5 5 6 6 6 5 5 6 6 6 6 6 8 10 10 10 11 14 16 16 15 15 16 17 17 17 17 17 17 17 17 17 17 17 17 17 17 17 17 17
5 3 4 6 8 7 6 7 7 5 4 4 4 4 5 5 4 5 7 8 6 4 4 4 3 3 4 4 3 3 4 4 4 4 4 4 5 5 5 5 4 4 4 4 4 4 5 6 6 6 5 5 5 6 7 6 6 8 10 12 12 14 16 16 16 16 15 16 17 18 17 16 16 16 16 17 17 17 17 17 17 17 17 17 17
5 5 5 5 5 4 6 8 7 4 4 6 5 4 4 4 4 4 6 6 5 4 5 5 5 5 5 4 4 3 3 2 3 3 3 4 4 4 5 5 5 5 5 5 5 5 5 6 6 7 7 6 6 6 7 6 6 8 11 13 14 15 16 16 17 16 15 15 17 19 17 15 15 16 16 16 16 16 16 16 16 17 17 17 17
8 8 8 8 6 6 6 7 5 3 5 7 7 5 4 4 4 4 6 5 4 3 4 5 5 5 4 3 3 2 1 1 1 2 2 3 3 4 4 4 5 5 5 5 6 6 6 6 7 8 8 8 8 7 7 6 6 10 13 14 14 15 16 17 17 16 15 15 16 18 18 17 16 16 16 16 15 16 16 16 16 16 16 16 16
Wind_Direction
287 300 311 311 311 310 308 307 304 301 295 285 273 265 262 259 258 258 257 256 254 253 253 251 250 249 248 249 248 246 245 243 242 241 239 236 233 233 235 239 240 240 240 240 237 236 237 239 240 239 238 237 238 241 240 238 238 235 235 236 235 233 231 233 247 260 255 257 261 265 268 269 270 269 265 264 268 268 264 264 263 261 261 265 268
290 303 310 310 309 308 307 306 306 304 300 294 285 277 271 264 260 259 258 256 253 251 251 250 249 247 245 245 246 246 245 243 242 241 239 235 233 232 231 235 240 240 240 241 237 236 238 239 241 240 239 238 238 239 239 236 235 233 234 235 235 233 232 235 245 258 260 257 257 260 263 263 266 268 263 261 267 270 267 265 266 265 265 266 268
289 298 303 306 308 307 305 304 304 304 302 299 294 288 281 273 266 260 258 258 256 252 251 249 248 246 244 243 243 243 244 242 240 240 239 236 234 232 231 233 238 239 239 240 238 235 237 239 241 239 237 238 238 238 238 237 234 234 236 237 236 236 236 236 241 249 259 259 254 254 258 260 263 265 263 261 266 268 266 265 267 269 269 268 267
288 295 301 305 306 304 302 301 300 302 303 302 300 295 289 281 272 264 260 260 258 255 254 251 248 246 244 243 242 241 242 241 240 240 240 240 236 234 233 234 238 240 240 241 239 235 235 238 240 239 235 236 239 238 239 240 238 238 241 241 239 239 239 237 238 244 252 258 254 250 252 256 260 263 264 263 263 264 264 264 266 267 268 267 268
293 297 300 302 303 302 300 298 298 302 304 304 303 300 294 287 279 271 267 264 260 258 257 252 249 247 245 244 242 241 241 242 242 241 241 242 240 237 236 237 239 241 241 241 240 237 236 239 241 239 236 237 240 241 241 242 241 241 243 243 241 241 241 239 240 242 247 254 256 253 251 251 255 259 261 261 262 263 263 264 264 265 265 265 266
296 297 299 299 299 300 299 297 298 302 304 304 304 302 297 291 284 278 273 270 265 261 258 255 253 252 250 248 246 245 244 245 244 243 242 242 241 240 238 238 240 242 242 241 240 239 238 239 241 239 238 240 242 243 243 243 242 242 243 243 243 243 242 241 241 241 244 250 255 255 252 248 250 254 255 256 258 261 264 266 266 265 262 260 260
295 295 297 297 297 299 300 299 299 301 303 303 303 301 299 294 288 282 278 275 271 267 262 259 258 257 254 251 249 248 247 246 246 245 244 243 241 240 239 239 241 243 243 242 240 239 238 239 241 241 241 243 244 243 243 243 243 244 244 244 243 243 242 242 241 240 243 248 252 253 253 250 249 250 251 252 254 256 260 264 267 265 260 257 256
294 296 297 295 297 301 302 301 302 303 303 303 303 302 300 296 291 286 281 277 274 271 268 264 261 260 258 254 252 251 249 248 247 246 244 242 242 243 243 241 241 242 244 244 241 241 242 243 244 245 246 246 246 245 244 244 244 245 245 244 243 242 242 242 241 241 242 246 250 252 253 252 249 246 246 244 243 249 251 252 258 261 260 259 259
293 296 295 295 298 301 302 303 304 304 304 304 304 303 301 297 292 288 284 280 277 274 271 268 264 261 260 257 255 253 251 250 249 246 244 243 244 245 246 245 244 243 244 246 245 244 245 245 246 247 248 248 249 249 248 247 246 246 246 245 242 241 242 242 242 241 242 245 249 251 252 252 247 241 236 231 231 243 249 248 253 259 262 265 264
292 293 292 294 298 299 300 303 304 304 304 304 303 303 301 298 294 290 286 283 279 277 274 270 266 262 260 258 255 252 251 250 250 248 246 245 244 246 247 247 245 244 245 246 247 246 246 247 248 249 250 252 252 252 252 251 250 250 250 247 243 241 241 242 242 241 241 244 246 247 248 250 246 239 235 236 238 244 249 248 253 260 264 267 267
291 288 289 293 295 296 298 299 301 302 303 304 303 303 302 300 296 293 289 286 282 280 277 272 269 265 261 258 255 252 251 251 251 251 250 249 247 247 248 249 247 246 246 246 248 248 248 249 250 251 252 253 254 254 255 255 254 253 253 251 249 245 242 242 243 242 241 243 247 246 245 250 251 243 241 244 244 244 247 247 250 254 256 259 268
289 288 290 294 295 297 298 297 298 299 301 303 303 303 302 300 298 295 292 290 287 284 280 276 272 269 265 261 258 255 255 255 255 256 255 254 252 251 251 252 252 252 250 248 249 250 250 251 252 252 252 253 254 255 256 257 257 256 256 255 254 252 249 247 246 245 243 244 248 246 244 250 254 248 243 246 246 245 247 246 245 247 248 249 255
290 291 295 297 297 297 297 297 299 300 301 302 302 302 302 299 297 295 292 291 288 287 287 286 282 279 275 271 268 266 264 263 260 258 256 255 255 255 255 256 256 256 255 253 253 253 252 253 254 254 254 255 256 256 256 257 259 259 259 258 257 256 255 253 252 250 249 249 252 252 249 249 253 252 249 249 249 247 247 247 247 248 249 250 255
291 295 298 299 298 297 296 297 299 300 302 302 302 302 302 300 297 295 291 287 283 283 287 288 287 285 281 276 275 274 271 266 261 258 256 254 253 255 258 260 260 259 259 258 258 257 256 256 255 256 256 257 257 257 256 256 257 258 259 259 258 259 259 260 259 258 257 255 255 258 258 256 256 259 259 255 252 250 250 252 253 252 253 257 262
291 293 295 297 297 295 295 295 296 299 301 302 303 304 304 303 302 298 292 286 281 277 277 278 279 279 276 272 268 266 264 265 265 263 261 259 256 255 256 259 260 261 262 261 261 260 259 259 258 258 258 258 257 256 256 255 255 255 257 258 259 261 263 265 266 266 265 263 261 262 264 265 266 269 269 266 262 260 261 264 267 270 272 274 275
287 289 291 294 294 293 294 294 295 298 299 300 304 306 307 307 306 302 297 291 285 276 270 271 274 275 277 275 266 260 260 263 266 266 266 266 263 260 258 258 258 259 260 261 261 260 260 260 260 261 260 257 255 254 254 254 253 252 254 255 256 258 260 263 265 265 266 266 265 265 267 268 269 269 270 269 267 267 270 272 274 277 280 281 279
281 289 292 294 297 297 298 299 299 299 300 300 302 305 308 310 308 304 300 296 289 278 268 265 266 267 270 271 262 255 257 262 266 267 268 269 267 265 264 263 262 259 258 258 257 255 254 253 252 252 249 245 246 248 250 252 250 247 248 249 250 252 254 255 258 261 263 266 270 272 276 277 275 273 272 269 267 266 267 270 271 270 270 268 269
288 299 301 303 308 309 309 309 307 307 307 305 304 305 306 307 307 303 297 290 282 275 268 262 263 263 261 262 263 262 265 274 280 279 278 278 275 273 269 266 262 255 248 242 238 235 238 240 236 232 231 234 242 246 248 253 256 257 257 260 265 269 267 265 267 271 274 276 279 281 284 285 283 281 279 276 274 269 263 264 264 259 251 248 259
303 313 318 321 324 325 325 324 322 321 320 316 315 312 308 307 305 302 297 283 270 268 268 268 271 276 273 272 277 280 284 292 293 289 288 284 278 273 267 261 254 247 239 233 233 236 244 250 249 247 248 252 256 260 262 264 268 273 275 279 282 282 280 280 281 282 282 282 284 284 285 284 282 280 280 278 278 277 274 274 271 261 253 254 260
318 334 343 348 347 344 347 348 346 345 340 336 335 329 320 315 310 308 308 300 281 274 272 273 318 31 50 43 24 12 355 343 329 314 303 293 281 269 259 250 245 243 243 242 241 244 250 256 261 262 262 263 264 265 266 266 267 268 270 274 275 272 274 276 278 280 282 283 285 285 287 289 288 286 284 280 277 276 277 279 278 270 263 261 260
80 68 56 46 36 28 30 31 30 29 21 13 13 12 6 359 354 2 26 60 80 88 90 85 73 68 70 69 61 55 50 40 32 29 21 11 354 305 263 249 242 240 241 238 236 242 250 262 273 274 272 274 274 271 268 266 264 261 260 261 260 263 271 276 277 280 283 285 288 290 293 296 297 298 296 291 286 283 280 279 279 277 271 265 261
121 111 97 84 76 68 66 66 65 65 65 66 68 63 56 55 62 77 91 97 98 95 88 78 67 60 61 64 62 60 58 52 47 44 40 37 37 32 23 15 3 240 212 194 186 188 164 125 358 335 316 301 301 300 290 283 274 260 254 254 257 260 265 271 276 283 289 292 294 298 303 305 304 305 305 302 302 301 297 290 286 284 281 273 266
134 124 112 100 93 88 84 83 82 81 80 82 86 86 83 84 89 98 105 103 97 91 80 67 60 51 47 49 52 54 55 52 50 48 44 41 40 37 34 31 28 25 26 57 89 102 107 104 96 86 82 57 359 334 329 332 345 313 269 259 262 265 267 272 281 290 295 299 300 304 317 326 322 319 316 314 312 307 300 293 286 283 285 284 278
140 129 120 110 104 100 97 95 93 90 89 89 87 84 85 90 92 98 104 101 93 88 78 66 59 50 41 37 35 37 42 43 43 43 42 40 39 36 33 29 24 21 17 21 44 68 87 96 98 97 93 89 85 79 71 66 64 58 55 59 53 28 342 336 348 346 338 343 346 341 342 343 335 329 327 326 324 319 308 297 288 282 280 281 281
137 126 117 110 107 105 102 99 95 94 94 93 89 84 82 82 78 78 83 81 73 72 68 60 59 54 42 33 23 15 17 21 22 24 27 29 30 28 24 19 15 12 9 11 23 46 73 94 101 103 103 102 99 94 87 81 78 73 70 71 71 66 53 35 23 15 7 359 349 341 338 338 335 333 334 334 333 332 329 320 310 300 292 287 283
134 124 115 110 109 105 101 95 91 90 91 89 88 88 87 84 77 69 64 58 52 51 44 36 38 37 31 28 18 7 4 6 6 6 8 11 13 13 9 2 353 345 343 347 360 28 66 90 97 102 105 103 101 100 96 92 89 84 75 70 67 56 43 31 18 10 1 349 340 335 330 328 331 335 341 341 336 333 334 330 323 318 316 310 300
132 124 117 113 110 106 101 95 89 88 87 86 87 86 86 85 81 72 63 55 51 49 43 34 28 24 18 12 7 5 4 2 360 359 359 359 0 0 360 357 348 335 326 325 329 343 47 86 92 99 104 100 95 96 94 86 78 69 60 56 52 45 39 33 27 14 353 338 331 327 324 326 330 335 338 335 330 331 335 333 326 323 323 320 309
130 123 117 112 108 105 102 99 95 90 85 83 81 77 75 78 77 70 62 59 59 57 52 45 35 26 19 10 4 2 3 1 358 353 349 348 349 351 354 358 354 344 334 327 324 339 56 67 69 79 92 91 83 80 78 70 60 49 41 38 38 34 30 27 25 14 356 343 335 331 331 333 332 333 335 330 325 329 335 335 327 322 323 321 310
126 120 115 110 107 102 99 100 102 98 89 84 79 73 72 78 81 79 74 71 73 76 71 60 48 42 40 32 23 15 3 354 347 340 335 335 338 344 349 352 349 346 342 340 354 61 62 44 37 38 46 53 54 51 49 47 45 39 35 33 31 28 24 21 17 6 354 347 344 342 341 341 337 336 336 333 328 329 331 329 323 319 318 314 305
122 116 110 107 105 102 98 99 104 105 103 101 96 87 82 81 86 90 87 80 75 76 77 73 68 73 75 52 35 25 4 344 335 330 330 330 331 336 338 335 333 335 337 340 45 59 47 31 24 22 20 22 26 27 26 26 27 27 28 29 30 27 25 20 12 1 353 350 350 348 345 342 338 337 334 329 325 325 324 321 315 313 311 306 300
124 114 105 104 108 107 103 105 113 117 117 121 123 117 107 96 87 88 94 91 81 73 74 73 66 67 80 50 8 355 343 336 333 332 332 332 335 342 338 327 323 326 318 326 52 44 37 32 27 21 17 18 22 20 17 17 17 16 17 19 21 21 20 14 6 359 355 354 352 348 345 340 334 331 330 325 322 321 320 319 314 307 301 298 296
135 125 118 116 118 117 115 119 127 130 128 128 132 137 139 134 122 110 100 75 61 67 71 60 35 26 26 9 349 345 346 346 342 339 337 336 340 355 352 347 348 346 359 79 62 46 37 34 29 22 19 20 20 17 15 15 13 11 12 11 10 11 11 6 2 360 358 355 350 346 343 339 333 329 326 323 321 320 319 317 314 308 302 299 298
141 136 132 124 119 117 121 146 159 159 156 152 146 143 148 151 148 145 146 153 313 334 43 57 50 11 359 360 1 2 1 1 356 348 345 344 346 1 13 22 33 47 64 66 57 46 39 34 29 23 19 16 14 12 13 14 10 8 8 5 1 0 0 359 359 359 356 351 348 345 342 339 334 329 325 323 322 321 319 317 316 313 311 309 307
147 146 143 138 131 125 136 210 237 224 199 184 174 166 163 161 159 161 166 173 188 215 24 37 29 6 356 6 17 15 14 19 15 4 355 354 360 78 79 51 50 56 59 56 49 41 35 33 29 24 18 14 14 13 13 12 10 7 5 1 358 355 354 354 355 352 347 344 346 345 341 336 331 327 325 325 324 321 319 319 317 315 314 312 310
152 152 154 154 152 156 178 210 254 272 258 231 204 188 177 169 166 167 169 170 168 162 123 45 23 1 353 3 21 21 24 31 29 19 14 14 31 105 86 55 47 48 48 45 41 36 32 30 28 25 21 18 16 14 10 7 6 4 359 355 353 350 349 350 350 347 345 347 350 348 341 335 331 327 324 322 322 322 322 323 322 321 321 318 315
156 157 160 163 163 170 191 206 226 254 259 246 235 219 195 178 168 160 156 154 149 141 121 85 31 349 350 3 27 28 28 35 40 38 37 42 65 82 71 53 46 46 43 37 33 32 32 30 27 23 19 15 12 8 3 359 357 356 355 352 351 350 349 351 354 355 356 356 353 349 345 340 337 334 329 325 324 325 325 326 326 327 327 325 320
162 160 159 162 167 174 191 206 216 227 230 225 223 219 203 186 165 149 145 144 140 133 114 84 34 343 350 2 16 19 17 29 45 46 44 55 75 78 69 57 50 48 41 31 26 27 28 27 24 19 14 11 7 3 360 357 356 356 357 355 352 351 350 352 355 358 358 356 353 351 349 345 342 340 337 333 332 330 327 323 320 318 318 316 312
167 165 164 165 169 175 187 200 208 216 219 215 212 204 184 172 161 150 148 144 139 135 123 98 64 19 2 358 358 358 357 7 31 34 33 43 58 66 67 62 54 47 40 31 27 26 25 22 19 16 12 10 7 3 360 359 358 357 356 352 350 351 352 353 356 357 357 355 352 349 345 340 337 335 333 328 325 323 320 318 316 313 312 311 309
168 169 172 173 174 179 187 194 200 205 207 207 204 200 183 168 157 152 157 153 145 138 129 113 87 51 21 3 354 351 351 6 25 31 32 36 44 50 53 51 45 41 38 32 27 26 23 17 13 13 12 10 8 5 2 360 357 355 353 351 351 354 357 356 355 355 354 351 348 344 341 337 332 330 327 323 321 320 318 315 314 312 311 310 308
172 170 174 176 178 183 186 188 191 192 192 194 194 188 173 159 148 147 158 160 154 142 130 116 96 66 37 20 12 10 16 27 30 32 35 38 40 41 40 37 33 31 29 27 24 22 19 14 11 11 11 9 6 3 360 358 356 354 354 356 356 357 358 357 354 352 351 348 345 342 340 337 334 332 329 327 325 323 320 316 314 312 309 307 306
176 173 176 177 178 178 179 184 190 186 182 183 179 168 159 151 145 150 160 159 147 131 119 110 98 79 56 44 47 58 64 52 35 29 36 43 43 40 37 33 27 22 18 17 16 13 11 12 8 5 4 3 0 359 359 360 1 359 360 2 1 357 355 354 352 350 347 344 342 340 336 334 333 330 328 326 325 324 322 319 318 315 312 309 308
179 179 181 179 176 174 176 182 184 178 174 171 163 157 154 146 143 150 151 142 132 121 112 109 106 87 67 68 85 91 80 64 44 32 35 38 39 40 38 33 27 22 17 14 10 5 4 3 358 357 358 355 353 357 359 0 4 6 4 4 1 357 354 352 349 348 345 341 337 334 331 329 326 322 319 319 318 318 317 316 315 315 312 310 310
181 181 180 177 175 175 176 177 177 175 174 166 153 150 147 138 134 133 122 113 112 112 110 115 120 104 81 85 98 99 86 70 58 44 35 32 35 40 40 38 35 34 31 25 20 16 16 10 2 3 3 356 356 3 3 1 5 8 6 4 0 356 354 351 347 345 343 337 332 328 325 322 319 315 312 312 309 307 306 305 304 304 303 302 302
177 177 175 173 173 174 174 176 177 175 170 161 153 148 143 132 127 127 121 114 108 105 102 104 108 99 87 88 92 90 82 75 70 57 43 37 37 39 42 43 43 42 39 32 25 23 26 24 19 21 23 19 19 22 17 12 15 16 12 7 360 353 350 348 344 341 336 330 325 321 317 314 312 308 305 305 304 301 299 298 296 296 296 294 293
175 173 167 165 167 167 168 175 176 170 165 159 150 143 138 128 120 120 119 115 109 106 104 96 72 62 65 74 79 79 80 82 79 68 58 51 43 41 44 46 44 41 39 31 20 17 21 22 21 27 35 37 35 35 33 32 34 32 22 8 353 343 342 341 335 331 327 321 317 314 310 308 305 301 299 300 300 297 294 293 294 294 293 293 292
173 168 161 160 161 159 159 162 165 164 161 154 144 138 132 124 119 116 113 111 111 110 107 99 79 56 50 57 68 78 83 85 83 77 71 66 60 53 52 54 54 50 43 33 22 16 17 15 16 26 37 38 37 37 37 37 36 31 20 8 355 343 339 337 331 327 325 321 317 313 310 306 304 301 300 300 299 297 295 295 296 295 295 296 297
170 162 158 158 156 149 146 148 152 154 151 142 137 133 125 121 120 118 116 117 117 112 106 102 94 80 67 64 77 97 100 96 92 85 75 69 68 66 62 65 73 70 55 38 26 17 12 11 13 20 27 30 29 29 29 31 29 21 15 12 4 347 339 338 336 331 327 324 321 317 312 307 303 301 302 302 301 300 299 299 298 298 298 298 298
166 149 146 157 157 151 142 142 148 148 139 128 124 119 113 112 113 116 121 125 122 112 111 112 110 115 130 130 123 130 128 119 109 95 76 64 61 60 57 58 61 59 50 36 20 10 7 7 6 8 16 22 20 17 19 22 20 14 14 13 359 340 338 343 343 336 331 329 326 321 315 307 301 300 301 302 301 300 300 301 302 302 302 301 300
161 143 140 152 155 151 148 150 149 143 135 129 123 115 110 105 99 109 122 125 117 110 119 127 129 139 150 154 157 157 150 136 122 107 84 65 54 48 44 43 42 38 32 22 9 360 358 355 351 351 357 3 6 10 14 12 7 9 12 5 347 335 339 344 340 335 335 335 331 327 321 311 303 300 301 301 302 302 302 303 305 306 306 306 305
157 145 138 138 133 131 144 149 144 132 134 137 127 111 107 105 96 106 121 122 113 117 134 142 145 146 147 150 156 161 156 141 128 111 89 74 61 48 37 32 27 24 21 13 3 352 346 343 341 339 337 337 343 355 0 358 357 2 0 348 334 332 338 339 335 334 339 339 335 333 331 322 311 307 305 304 305 305 305 306 307 308 308 307 307
149 143 141 140 131 125 134 139 127 116 138 144 134 118 114 114 110 119 131 131 124 130 143 150 152 150 144 141 142 143 136 118 91 68 59 57 53 46 36 25 16 11 7 4 359 353 345 340 339 337 333 329 331 334 337 343 352 352 343 333 328 331 336 334 332 335 341 340 336 337 339 335 327 320 316 312 308 307 306 306 307 308 308 308 308